Fort Indiantown Gap, PA

9:55 PM EST on December 14, 2019 (GMT -0500)
Muir Army Air Field

Weather History for KMUI - October, 2019

Change the Weather History Date:

Friday, October 4, 2019

  Actual Average Record
Temperature  
Mean Temperature 55 °F -  
Max Temperature 67 °F 66 °F 83 °F (2007)
Min Temperature 43 °F 47 °F 35 °F (1996)
Degree Days  
Heating Degree Days 10    
Growing Degree Days 5 (Base 50)    
Moisture  
Dew Point 50 °F    
Average Humidity 75    
Maximum Humidity 100    
Minimum Humidity 48    
Precipitation  
Precipitation 0.00 in - - ()
Sea Level Pressure  
Sea Level Pressure 30.11 in    
Wind  
Wind Speed 4 mph (NNW)    
Max Wind Speed 16 mph    
Max Gust Speed 25 mph    
Visibility 8 miles    
Events Fog    
Averages and records for this station are not official NWS values.
T = Trace of Precipitation, MM = Missing Value Source: NWS Daily Summary

Daily Weather History Graph

Daily Weather History Graph

Search for Another Location

Airport or City:

Astronomy

Oct. 04, 2019 Rise Set
Actual Time 7:05 AM EDT 6:43 PM EDT
Civil Twilight 6:38 AM EDT 7:11 PM EDT
Nautical Twilight 6:06 AM EDT 7:42 PM EDT
Astronomical Twilight 5:34 AM EDT 8:14 PM EDT
Moon 1:36 PM EDT (10/4) 11:09 PM EDT (10/4)
Length of Visible Light 12h 32m
Length of Day
11h 38m
Waxing Crescent, 39% of the Moon is Illuminated
Oct 4
Waxing Crescent
Oct 5
First Quarter
Oct 13
Full
Oct 21
Last Quarter
Oct 27
New

Hourly Weather History & Observations

Time (EDT) Temp. Windchill Dew Point Humidity Pressure Visibility Wind Dir Wind Speed Gust Speed Precip Events Conditions
12:12 AM 57.2 °F - 57.2 °F 100% 29.99 in 10.0 mi Calm Calm - N/A   Overcast
12:56 AM 57.9 °F - 57.6 °F 99% 29.99 in 10.0 mi Calm Calm - N/A   Overcast
1:44 AM 59.0 °F - 57.2 °F 94% 29.98 in 10.0 mi Calm Calm - N/A   Overcast
1:56 AM 58.3 °F - 57.7 °F 98% 29.98 in 10.0 mi Calm Calm - N/A   Overcast
2:28 AM 57.2 °F - 57.2 °F 100% 29.98 in 10.0 mi Calm Calm - N/A   Overcast
2:52 AM 57.2 °F - 57.2 °F 100% 29.98 in 10.0 mi WSW 4.6 mph - N/A   Mostly Cloudy
2:56 AM 57.4 °F - 56.8 °F 98% 29.98 in 10.0 mi WSW 3.5 mph - N/A   Mostly Cloudy
3:20 AM 57.2 °F - 57.2 °F 100% 29.98 in 2.2 mi SW 3.5 mph - N/A   Overcast
3:24 AM 59.0 °F - 57.2 °F 94% 29.99 in 0.8 mi Calm Calm - N/A   Overcast
3:32 AM 59.0 °F - 57.2 °F 94% 29.99 in 0.5 mi Calm Calm - N/A Fog Fog
3:40 AM 59.0 °F - 57.2 °F 94% 29.99 in 0.4 mi Calm Calm - N/A Fog Fog
3:56 AM 58.3 °F - 57.9 °F 99% 30.00 in 0.4 mi Calm Calm - N/A Fog Fog
4:04 AM 59.0 °F - 59.0 °F 100% 29.99 in 1.0 mi NNW 3.5 mph - N/A   Overcast
4:06 AM 59.0 °F - 59.0 °F 100% 30.00 in 2.8 mi NW 4.6 mph - N/A   Mostly Cloudy
4:14 AM 60.8 °F - 60.8 °F 100% 30.00 in 10.0 mi WNW 4.6 mph - N/A   Scattered Clouds
4:56 AM 61.3 °F - 51.8 °F 71% 30.01 in 10.0 mi WNW 6.9 mph - N/A   Clear
5:56 AM 61.3 °F - 49.1 °F 64% 30.03 in 10.0 mi West 4.6 mph - N/A   Clear
6:56 AM 57.0 °F - 50.9 °F 80% 30.05 in 10.0 mi West 4.6 mph - N/A   Clear
7:56 AM 60.8 °F - 50.5 °F 69% 30.07 in 10.0 mi West 6.9 mph - N/A   Partly Cloudy
9:56 AM 64.9 °F - 50.7 °F 60% 30.11 in 10.0 mi North 12.7 mph 21.9 mph N/A   Scattered Clouds
10:02 AM 64.4 °F - 50.0 °F 59% 30.11 in 10.0 mi NNW 11.5 mph 21.9 mph N/A   Scattered Clouds
10:56 AM 65.7 °F - 50.0 °F 57% 30.13 in 10.0 mi NW 12.7 mph 19.6 mph N/A   Overcast
11:56 AM 65.1 °F - 48.0 °F 54% 30.16 in 10.0 mi NW 12.7 mph 24.2 mph N/A   Scattered Clouds
12:42 PM 64.4 °F - 46.4 °F 52% 30.17 in 10.0 mi NNE 13.8 mph 25.3 mph N/A   Partly Cloudy
12:56 PM 64.8 °F - 46.8 °F 52% 30.18 in 10.0 mi North 16.1 mph 23.0 mph N/A   Partly Cloudy
1:56 PM 63.7 °F - 44.6 °F 50% 30.19 in 10.0 mi NNW 9.2 mph 21.9 mph N/A   Partly Cloudy
2:56 PM 62.6 °F - 43.7 °F 50% 30.21 in 10.0 mi North 9.2 mph - N/A   Scattered Clouds
3:56 PM 60.1 °F - 40.8 °F 49% 30.23 in 10.0 mi NNE 10.4 mph 17.3 mph N/A   Partly Cloudy
3:57 PM 60.8 °F - 41.0 °F 48% 30.23 in 10.0 mi NNW 15.0 mph 21.9 mph N/A   Partly Cloudy
4:56 PM 57.2 °F - 39.7 °F 52% 30.25 in 10.0 mi NNE 11.5 mph 18.4 mph N/A   Partly Cloudy
5:56 PM 54.7 °F - 37.9 °F 53% 30.27 in 10.0 mi NNE 6.9 mph - N/A   Partly Cloudy
6:56 PM 52.2 °F - 37.4 °F 57% 30.28 in 10.0 mi North 6.9 mph - N/A   Partly Cloudy
7:56 PM 50.7 °F - 37.8 °F 61% 30.29 in 10.0 mi North 6.9 mph - N/A   Clear
8:56 PM 49.8 °F - 37.8 °F 63% 30.31 in 10.0 mi NE 6.9 mph - N/A   Clear
9:56 PM 48.7 °F - 37.0 °F 64% 30.34 in 10.0 mi Calm Calm - N/A   Clear
10:56 PM 45.0 °F 43.5 °F 38.1 °F 77% 30.37 in 10.0 mi NE 3.5 mph - N/A   Clear
11:56 PM 43.7 °F 42.1 °F 37.6 °F 79% 30.39 in 10.0 mi NNW 3.5 mph - N/A   Clear